Flag for Germany Weather past 2 weeks in Falkensee, Brandenburg, Germany

Now
70 °F

Passing clouds.


Feels Like: 70 °F
Forecast: 56 / 82 °F
Wind: 3 mph from East

Location: Berlin-Tegel

Current Time: Aug 1, 2015 at 11:25:16 PM

Latest Report: Aug 1, 2015 at 10:50 PM


Visibility: N/A

Pressure: 30.01 "Hg

Humidity: 46%

Dew point: 48 °F

Location of FalkenseeLocation

Historic Weather in Falkensee — Graph

°F

Falkensee temperature yesterday

Maximum temperature yesterday: 64 °F (at 11:50 AM)
Minimum temperature yesterday: 48 °F (at 4:20 AM)
Average temperature yesterday: 58 °F

Past Weeks' High & Low Weather Summary

 TemperatureHumidityPressure
High84 °F (Jul 22, 5:50 PM)100% (Jul 19, 11:50 AM)30.09 "Hg (Jul 19, 11:50 AM)
Low46 °F (Aug 1, 2:20 AM)26% (Aug 1, 5:50 PM)29.53 "Hg (Jul 25, 8:50 AM)
Average66 °F63%29.84 "Hg
* Reported Jul 17 10:20 PM — Aug 1 10:20 PM, Falkensee, Weather by CustomWeather, © 2015

Note: Actual official high and low records may vary slightly from our data, if they occured in-between our weather recording intervals... More about our weather records

Advertising

Falkensee weather history for previous 24 hours

 ConditionsComfort  
Time TempWeatherWind HumidityBarometerVisibility
10:20 PM
Sat, Aug 1
70 °FPassing clouds.5 mph46%30.01 "HgN/A
9:50 PM72 °FPassing clouds.5 mph44%30.01 "HgN/A
9:20 PM72 °FPassing clouds.6 mph44%30.01 "HgN/A
8:50 PM73 °FPassing clouds.6 mph38%29.98 "HgN/A
8:20 PM73 °FPassing clouds.7 mph38%29.98 "HgN/A
7:50 PM75 °FSunny.3 mph31%29.98 "Hg10 mi
7:20 PM77 °FSunny.2 mph28%29.98 "Hg10 mi
6:50 PM77 °FPassing clouds.6 mph30%29.98 "HgN/A
6:20 PM77 °FSunny.5 mph28%29.98 "Hg10 mi
5:50 PM79 °FPassing clouds.7 mph26%29.98 "HgN/A
5:20 PM79 °FPassing clouds.6 mph28%29.98 "HgN/A
4:50 PM77 °FPassing clouds.8 mph30%30.01 "HgN/A
4:20 PM77 °FPassing clouds.10 mph30%30.01 "HgN/A
3:50 PM77 °FPassing clouds.8 mph32%30.01 "HgN/A
3:20 PM75 °FSunny.7 mph31%30.01 "Hg10 mi
2:50 PM73 °FPassing clouds.7 mph31%30.01 "HgN/A
2:20 PM75 °FPassing clouds.8 mph31%30.04 "HgN/A
1:50 PM73 °FPassing clouds.6 mph33%30.04 "HgN/A
1:20 PM72 °FPassing clouds.8 mph33%30.04 "HgN/A
12:50 PM72 °FPassing clouds.9 mph36%30.07 "HgN/A
12:20 PM70 °FPassing clouds.8 mph35%30.07 "HgN/A
11:50 AM68 °FPassing clouds.9 mph40%30.07 "HgN/A
11:20 AM68 °FPassing clouds.8 mph40%30.07 "HgN/A
10:50 AM66 °FPassing clouds.8 mph46%30.07 "HgN/A
10:20 AM64 °FPassing clouds.8 mph49%30.07 "HgN/A
9:50 AM64 °FPassing clouds.8 mph49%30.07 "HgN/A
9:20 AM63 °FPassing clouds.7 mph56%30.07 "HgN/A
8:50 AM59 °FPassing clouds.6 mph63%30.07 "HgN/A
8:20 AM57 °FPassing clouds.5 mph67%30.09 "HgN/A
7:50 AM55 °FPassing clouds.3 mph67%30.09 "HgN/A
7:20 AM52 °FSunny.2 mph82%30.09 "Hg10 mi
6:50 AM52 °FSunny.2 mph82%30.09 "Hg10 mi
6:20 AM50 °FClear.2 mph82%30.09 "Hg10 mi
5:50 AM48 °FFog.2 mph87%30.09 "HgN/A
5:20 AM48 °FFog.1 mph94%30.09 "HgN/A
4:50 AM46 °FFog.No wind93%30.09 "HgN/A
4:20 AM46 °FFog.No wind93%30.09 "HgN/A
3:50 AM46 °FFog.1 mph93%30.09 "HgN/A
3:20 AM46 °FFog.No wind100%30.09 "HgN/A
2:50 AM46 °FFog.No wind100%30.09 "HgN/A
2:20 AM46 °FClear.No wind93%30.09 "Hg10 mi
1:50 AM48 °FClear.No wind87%30.09 "Hg10 mi
1:20 AM50 °FClear.No wind88%30.09 "Hg10 mi
12:50 AM48 °FClear.1 mph87%30.09 "Hg10 mi
12:20 AM50 °FClear.1 mph82%30.09 "Hg10 mi
11:50 PM
Fri, Jul 31
52 °FClear.No wind77%30.09 "Hg10 mi
11:20 PM52 °FClear.No wind82%30.07 "Hg10 mi
Weather by CustomWeather, © 2015

See weather overviewHow to use our weather pages